FW2748 Weather Reports


Display with metric or nautical units.
time (UTC)temp
F
wind
direction
speed
MPH
gust
MPH
rain 1hr
in
rain 24hr
in
rain mn
in
humidity
%
barometer
mb
20260502210306 74 53 9.0 12.0 0.00 0.00 0.00 30 1035.6
20260502205806 74 52 12.0 13.0 0.00 0.00 0.00 28 1035.6
20260502205306 74 33 12.0 13.0 0.00 0.00 0.00 26 1035.6
20260502204806 74 43 7.0 9.0 0.00 0.00 0.00 26 1035.6
20260502204307 74 38 9.0 13.0 0.00 0.00 0.00 27 1035.6
20260502203806 74 33 10.0 20.0 0.00 0.00 0.00 26 1035.6
20260502203306 74 8 11.0 15.0 0.00 0.00 0.00 27 1035.6
20260502202806 73 5 15.0 15.0 0.00 0.00 0.00 27 1035.6
20260502202306 73 43 8.0 13.0 0.00 0.00 0.00 28 1035.6
20260502201305 73 40 10.0 12.0 0.00 0.00 0.00 28 1035.6
20260502200806 73 32 6.0 10.0 0.00 0.00 0.00 27 1035.6
20260502195306 74 75 9.0 10.0 0.00 0.00 0.00 27 1035.6
20260502194806 74 43 12.0 12.0 0.00 0.00 0.00 29 1035.6
20260502194306 74 353 6.0 12.0 0.00 0.00 0.00 26 1035.6
20260502193806 74 343 5.0 8.0 0.00 0.00 0.00 26 1035.6
20260502192806 74 329 7.0 9.0 0.00 0.00 0.00 25 1035.6
20260502192306 74 5 9.0 14.0 0.00 0.00 0.00 25 1035.6
20260502191806 74 14 12.0 14.0 0.00 0.00 0.00 25 1035.6
20260502191306 74 24 3.0 5.0 0.00 0.00 0.00 25 1035.6
20260502190806 74 21 7.0 12.0 0.00 0.00 0.00 25 1035.6
20260502190306 74 57 7.0 10.0 0.00 0.00 0.00 29 1035.6
20260502185806 73 23 7.0 9.0 0.00 0.00 0.00 26 1035.6
20260502185306 74 320 2.0 2.0 0.00 0.00 0.00 26 1035.6
20260502184806 73 320 3.0 14.0 0.00 0.00 0.00 26 1035.6
20260502184306 73 12 5.0 8.0 0.00 0.00 0.00 26 1035.6
20260502183806 73 38 6.0 9.0 0.00 0.00 0.00 26 1035.6
20260502183306 73 317 9.0 9.0 0.00 0.00 0.00 26 1035.6
20260502182806 73 317 9.0 13.0 0.00 0.00 0.00 26 1035.6
20260502182306 73 0 6.0 7.0 0.00 0.00 0.00 27 1035.6
20260502181305 72 342 2.0 5.0 0.00 0.00 0.00 25 1035.6
20260502180806 72 349 4.0 5.0 0.00 0.00 0.00 25 1035.6
20260502180305 72 293 3.0 8.0 0.00 0.00 0.00 25 1035.6
20260502170306 69 220 9.0 13.0 0.00 0.00 0.00 27 1035.6
20260502164306 67 247 6.0 9.0 0.00 0.00 0.00 28 1035.6
20260502163805 67 227 10.0 14.0 0.00 0.00 0.00 29 1035.6
20260502163306 66 222 9.0 13.0 0.00 0.00 0.00 31 1035.6
20260502162806 66 234 6.0 14.0 0.00 0.00 0.00 31 1035.6
20260502161806 64 227 8.0 14.0 0.00 0.00 0.00 30 1035.6
20260502161307 64 205 10.0 12.0 0.00 0.00 0.00 31 1035.6
20260502152306 60 218 9.0 13.0 0.00 0.00 0.00 34 1035.6
20260502151806 60 238 8.0 14.0 0.00 0.00 0.00 36 1035.6
20260502151306 59 217 10.0 13.0 0.00 0.00 0.00 38 1035.6
20260502150806 58 232 12.0 14.0 0.00 0.00 0.00 38 1035.6
20260502123805 45 0 0.0 0.0 0.00 0.00 0.00 53 1035.6
20260502123305 45 0 0.0 6.0 0.00 0.00 0.00 53 1035.6
20260502122306 45 213 6.0 6.0 0.00 0.00 0.00 53 1035.6
20260502121305 45 213 8.0 9.0 0.00 0.00 0.00 53 1035.6
20260502120805 45 222 7.0 12.0 0.00 0.00 0.00 52 1035.6
20260502115805 46 226 7.0 10.0 0.00 0.00 0.00 50 1035.6
20260502114805 46 255 7.0 8.0 0.00 0.00 0.00 50 1035.6
20260502114305 46 271 3.0 7.0 0.00 0.00 0.00 51 1035.6
20260502113805 47 269 5.0 7.0 0.00 0.00 0.00 51 1035.6
20260502112805 47 246 6.0 7.0 0.00 0.00 0.00 50 1035.6
20260502112306 47 238 6.0 9.0 0.00 0.00 0.00 50 1035.6
20260502111805 47 230 7.0 12.0 0.00 0.00 0.00 50 1035.6
20260502111305 47 229 9.0 10.0 0.00 0.00 0.00 50 1035.6
20260502110805 47 233 6.0 6.0 0.00 0.00 0.00 50 1035.6
20260502110305 47 231 8.0 13.0 0.00 0.00 0.00 50 1035.6
20260502105805 47 234 9.0 9.0 0.00 0.00 0.00 50 1035.6
20260502105306 47 234 9.0 12.0 0.00 0.00 0.00 50 1035.6
20260502104805 47 228 8.0 9.0 0.00 0.00 0.00 50 1035.6
20260502104305 47 228 6.0 9.0 0.00 0.00 0.00 50 1035.6
20260502103805 47 221 5.0 8.0 0.00 0.00 0.00 50 1035.6
20260502103305 47 229 5.0 8.0 0.00 0.00 0.00 51 1035.6
20260502102805 47 237 7.0 10.0 0.00 0.00 0.00 51 1035.6
20260502101805 46 220 8.0 10.0 0.00 0.00 0.00 53 1035.6
20260502100805 46 232 6.0 8.0 0.00 0.00 0.00 54 1035.6
20260502100306 45 222 8.0 8.0 0.00 0.00 0.00 55 1035.6
20260502091305 46 214 7.0 9.0 0.00 0.00 0.00 52 1035.6
20260502090805 46 214 7.0 9.0 0.00 0.00 0.00 52 1035.6
20260502090305 46 216 6.0 9.0 0.00 0.00 0.00 52 1035.6
20260502071305 47 196 5.0 6.0 0.00 0.00 0.00 50 1035.6
20260502070805 48 195 2.0 2.0 0.00 0.00 0.00 50 1035.6
20260502065805 48 196 2.0 3.0 0.00 0.00 0.00 51 1035.6
20260502065306 48 195 2.0 3.0 0.00 0.00 0.00 51 1035.6
20260502064806 48 195 3.0 6.0 0.00 0.00 0.00 51 1035.6
20260502064305 48 195 3.0 6.0 0.00 0.00 0.00 51 1035.6
20260502063305 48 195 3.0 3.0 0.00 0.00 0.00 51 1035.6
20260502062805 48 195 3.0 5.0 0.00 0.00 0.00 51 1035.6
20260502062306 48 196 4.0 5.0 0.00 0.00 0.00 51 1035.6
20260502061805 48 196 4.0 5.0 0.00 0.00 0.00 53 1035.6
20260502061304 48 195 2.0 3.0 0.00 0.00 0.00 56 1035.6
20260502060804 49 195 1.0 3.0 0.00 0.00 0.00 56 1035.6
20260502055805 49 195 1.0 2.0 0.00 0.00 0.00 55 1035.6
20260502055306 49 195 1.0 3.0 0.00 0.00 0.00 50 1035.6
20260502054804 50 195 0.0 2.0 0.00 0.00 0.00 50 1035.6
20260502054304 50 195 0.0 1.0 0.00 0.00 0.00 47 1035.6
20260502053804 51 195 0.0 1.0 0.00 0.00 0.00 46 1035.6
20260502052805 51 195 0.0 2.0 0.00 0.00 0.00 45 1035.6
20260502052306 52 195 2.0 2.0 0.00 0.00 0.00 44 1035.6
20260502051806 52 195 1.0 2.0 0.00 0.00 0.00 43 1035.6
20260502051304 52 195 0.0 0.0 0.00 0.00 0.00 43 1035.6
20260502050804 53 195 0.0 0.0 0.00 0.00 0.00 43 1035.6
20260502045306 54 195 1.0 1.0 0.00 0.00 0.00 41 1035.6
20260502044805 54 195 1.0 2.0 0.00 0.00 0.00 40 1035.6
20260502044305 54 195 2.0 5.0 0.00 0.00 0.00 40 1035.6
20260502043805 55 195 1.0 3.0 0.00 0.00 0.00 42 1035.6
20260502043305 55 195 0.0 1.0 0.00 0.00 0.00 42 1035.6
20260502042306 55 195 1.0 3.0 0.00 0.00 0.00 44 1035.6
20260502041804 55 195 2.0 3.0 0.00 0.00 0.00 44 1035.6
20260502040305 55 195 1.0 2.0 0.00 0.00 0.00 47 1035.6
20260502035805 56 195 1.0 2.0 0.00 0.00 0.00 47 1035.6
20260502035306 57 195 1.0 1.0 0.00 0.00 0.00 40 1035.6
20260502034805 57 195 0.0 1.0 0.00 0.00 0.00 40 1035.6
20260502034305 57 195 1.0 2.0 0.00 0.00 0.00 39 1035.6
20260502033804 58 195 2.0 2.0 0.00 0.00 0.00 38 1035.6
20260502033305 58 195 1.0 2.0 0.00 0.00 0.00 38 1035.6
20260502032306 59 195 2.0 2.0 0.00 0.00 0.00 36 1035.6
20260502031805 60 195 2.0 5.0 0.00 0.00 0.00 35 1035.6
20260502024804 65 202 2.0 3.0 0.00 0.00 0.00 27 1035.6
20260502024304 66 229 1.0 3.0 0.00 0.00 0.00 24 1035.6
20260502023804 67 229 1.0 1.0 0.00 0.00 0.00 24 1035.6
20260502023304 67 229 1.0 2.0 0.00 0.00 0.00 24 1035.6
20260502022804 68 229 2.0 2.0 0.00 0.00 0.00 23 1035.6
20260502022306 68 229 1.0 3.0 0.00 0.00 0.00 22 1035.6
20260502021305 69 229 2.0 3.0 0.00 0.00 0.00 21 1035.6
20260502020804 70 229 4.0 5.0 0.00 0.00 0.00 20 1035.6
20260502020305 70 229 3.0 3.0 0.00 0.00 0.00 20 1035.6
20260502015804 71 229 2.0 3.0 0.00 0.00 0.00 20 1035.6
20260502014804 72 225 2.0 5.0 0.00 0.00 0.00 20 1035.6
20260502014304 72 214 0.0 3.0 0.00 0.00 0.00 20 1035.6
20260502013804 72 214 1.0 1.0 0.00 0.00 0.00 19 1035.6
20260502013305 72 214 3.0 5.0 0.00 0.00 0.00 20 1035.6
20260502012804 72 214 5.0 6.0 0.00 0.00 0.00 20 1035.6
20260502012306 72 214 0.0 5.0 0.00 0.00 0.00 19 1035.6
20260502011804 72 206 5.0 5.0 0.00 0.00 0.00 20 1035.6
20260502010804 72 205 3.0 9.0 0.00 0.00 0.00 22 1035.6
20260502010304 73 207 2.0 3.0 0.00 0.00 0.00 19 1035.6
20260502005804 73 207 2.0 3.0 0.00 0.00 0.00 20 1035.6
20260502005306 73 208 2.0 5.0 0.00 0.00 0.00 19 1035.6
20260502004804 73 208 4.0 6.0 0.00 0.00 0.00 19 1035.6
20260502004304 73 217 4.0 7.0 0.00 0.00 0.00 21 1035.6
20260502003804 74 288 6.0 6.0 0.00 0.00 0.00 18 1035.6
20260502003304 74 270 7.0 10.0 0.00 0.00 0.00 19 1035.6
20260502002804 74 267 3.0 3.0 0.00 0.00 0.00 19 1035.6
20260502002305 74 303 3.0 3.0 0.00 0.00 0.00 18 1035.6
20260502001304 74 291 6.0 12.0 0.00 0.00 0.00 19 1035.6
20260502000804 74 254 9.0 12.0 0.00 0.00 0.00 19 1035.6
20260502000306 74 239 8.0 10.0 0.00 0.00 0.00 18 1035.6
20260501235806 75 338 4.0 12.0 0.00 0.00 0.00 19 1035.6
20260501235306 75 313 3.0 5.0 0.00 0.00 0.00 18 1035.6
20260501234806 75 311 6.0 6.0 0.00 0.00 0.00 18 1035.6
20260501234306 75 302 3.0 5.0 0.00 0.00 0.00 20 1035.6
20260501233806 74 289 2.0 5.0 0.00 0.00 0.00 21 1035.6
20260501233306 74 233 0.0 3.0 0.00 0.00 0.00 21 1035.6
20260501232806 74 238 0.0 5.0 0.00 0.00 0.00 20 1035.6
20260501232306 74 243 5.0 7.0 0.00 0.00 0.00 20 1035.6
20260501231806 74 254 6.0 10.0 0.00 0.00 0.00 20 1035.6
20260501230806 74 186 7.0 7.0 0.00 0.00 0.00 21 1035.6
20260501230306 74 224 7.0 9.0 0.00 0.00 0.00 21 1035.6
20260501225807 74 234 9.0 9.0 0.00 0.00 0.00 21 1035.6
20260501225307 74 207 4.0 10.0 0.00 0.00 0.00 21 1035.6
20260501224807 74 245 10.0 14.0 0.00 0.00 0.00 21 1035.6
20260501223806 74 19 6.0 7.0 0.00 0.00 0.00 18 1035.6
20260501223307 74 0 7.0 12.0 0.00 0.00 0.00 19 1035.6
20260501222806 74 251 0.0 3.0 0.00 0.00 0.00 21 1035.6
20260501222307 74 251 3.0 9.0 0.00 0.00 0.00 20 1035.6
20260501221806 74 262 5.0 9.0 0.00 0.00 0.00 21 1035.6
20260501220306 74 209 5.0 8.0 0.00 0.00 0.00 23 1035.6
20260501215806 74 203 9.0 12.0 0.00 0.00 0.00 24 1035.6
20260501215307 74 191 7.0 8.0 0.00 0.00 0.00 25 1035.6
20260501214806 74 191 5.0 8.0 0.00 0.00 0.00 24 1035.6
20260501214306 73 190 5.0 9.0 0.00 0.00 0.00 23 1035.6
20260501213806 73 208 3.0 6.0 0.00 0.00 0.00 22 1035.6
20260501213307 74 247 7.0 7.0 0.00 0.00 0.00 22 1035.6
20260501212307 73 0 8.0 8.0 0.00 0.00 0.00 23 1035.6
20260501211806 73 0 7.0 10.0 0.00 0.00 0.00 22 1035.6
20260501211307 73 174 6.0 7.0 0.00 0.00 0.00 23 1035.6
20260501210806 73 340 3.0 7.0 0.00 0.00 0.00 21 1035.6